[[{"header":{"parameterUnit":"m.s-1","parameterCategory":1,"la1":30.2991,"la2":30.254,"lo1":-89.0895,"lo2":-89.0444,"dy":0.0017,"dx":0.0017,"nx":28,"ny":28,"refTime":"2023-09-13T09:00:00:Z","depth":0,"parameterNumber":2,"parameterNumberName":"U-component_of_WINDS"},"data":[0,0,0,0,0,0,0,0,0,0,0,0,0,0,0,0,0,0,0,0,0,0,0,0,0,0,0,0,0,0,0,0,0,0,0,0,0,0,0,0,0,0,0,0,0,0,0,0,0,0,0,0,0,0,0,0,0,0,1.3482,1.3484,0,1.3673,1.3675,1.3677,1.3705,1.3703,1.3701,1.37,1.3898,1.3905,1.3912,0,0,0,0,0,0,0,0,0,0,0,0,0,1.3146,1.3152,1.3482,1.3484,1.3487,1.3672,1.3675,1.3677,1.3705,1.3703,1.3701,1.3699,1.3896,1.3904,1.3912,0,0,0,0,0,0,0,0,0,0,0,0,0,1.3309,1.3154,1.3482,1.3523,1.3528,1.3672,1.3675,1.3678,1.3705,1.3703,1.37,1.3698,1.3893,1.3903,1.3914,1.403,0,0,1.3945,1.395,0,0,0,0,0,0,0,0,1.33,1.3322,1.3514,1.352,1.3527,1.3662,1.3629,1.3796,1.3706,1.3638,1.37,1.3696,1.3822,1.3838,1.388,1.404,1.4048,1.3946,1.3953,1.3957,1.396,0,0,0,0,0,0,0,1.3289,1.3314,1.3557,1.3517,1.3525,1.3533,1.3553,1.3661,1.3743,1.3644,1.3646,1.3668,1.3825,1.387,1.3885,1.4051,1.3946,1.3955,1.3962,1.3966,1.4316,1.4319,0,0,0,0,0,0,1.3269,1.3304,1.3551,1.3563,1.3405,1.3541,1.3564,1.3621,1.3742,1.3757,1.3671,1.3669,1.3853,1.3872,1.3892,1.4036,1.3957,1.3967,1.3973,1.4313,1.4317,1.432,0,0,0,0,0,0,1.3262,1.3291,1.3544,1.3434,1.3467,1.355,1.3614,1.3626,1.3671,1.3762,1.3777,1.3701,1.3852,1.3877,1.3995,1.4043,1.3971,1.3981,1.431,1.4314,1.4319,1.4324,0,0,0,0,0,0,1.3252,1.3288,1.3333,1.3435,1.3473,1.3643,1.3617,1.3632,1.3689,1.3688,1.3794,1.3809,1.3852,1.398,1.4006,1.4056,1.3989,1.4306,1.4312,1.4317,1.432,1.4329,1.4336,0,0,0,0,0,1.324,1.3327,1.3335,1.3364,1.353,1.3646,1.3667,1.3714,1.3692,1.3738,1.3796,1.3806,1.4034,1.3991,1.4021,1.4075,1.4303,1.431,1.4317,1.4317,1.4327,1.4336,0,0,0,0,0,0,1.3229,1.3342,1.3351,1.3474,1.355,1.365,1.3709,1.3723,1.3808,1.3804,1.3859,1.3883,1.3998,1.4049,1.4,1.4194,1.4167,1.418,1.4157,1.4167,1.4175,1.4159,1.3998,0,0,0,0,0,1.3241,1.3325,1.3419,1.3518,1.3556,1.3626,1.3678,1.3707,1.3789,1.3821,1.3888,1.3968,1.4057,1.4115,1.4203,1.4328,1.4352,1.438,1.4388,1.4394,1.4404,1.4474,1.4488,1.4343,1.4343,1.4343,0,0,1.3266,1.3338,1.3388,1.3518,1.358,1.3666,1.3653,1.3745,1.3809,1.3836,1.395,1.4003,1.4096,1.4217,1.4275,1.4263,1.445,1.4403,1.4407,1.4414,1.4483,1.4496,1.4508,1.4348,1.4347,1.4346,0,0,1.3356,1.3419,1.3508,1.3571,1.3665,1.3711,1.3733,1.3831,1.3866,1.3983,1.4004,1.4083,1.4236,1.4301,1.4354,1.447,1.4482,1.4497,1.4537,1.4604,1.4616,1.4626,1.4666,1.468,1.4507,1.4507,1.4507,0,1.3375,1.3505,1.3553,1.3644,1.37,1.3727,1.3819,1.3878,1.3996,1.4035,1.4021,1.4213,1.4278,1.4415,1.4443,1.4486,1.4512,1.4484,1.461,1.4621,1.4631,1.467,1.4686,1.4508,1.4508,1.4508,1.4508,0,1.3524,1.3614,1.3675,1.3787,1.3852,1.3942,1.4004,1.4064,1.4088,1.4136,1.4254,1.4332,1.4436,1.4471,1.4496,1.4613,1.4602,1.4598,1.4571,1.4645,1.4683,1.4698,1.451,1.451,1.4509,1.4509,0,0,1.3611,1.3749,1.377,1.3821,1.3928,1.3999,1.4092,1.4192,1.4241,1.4323,1.4402,1.4531,1.4528,1.4588,1.4621,1.4681,1.4766,1.467,1.4673,1.4684,1.4899,1.49,1.4916,1.4775,1.4778,1.4781,1.4891,0,1.3712,1.3876,1.3922,1.4061,1.4145,1.4172,1.4253,1.4328,1.4375,1.4454,1.4508,1.4598,1.4587,1.4624,1.4684,1.4743,1.481,1.4736,1.485,1.4853,1.4824,1.4936,1.4938,1.5038,1.4906,1.4908,1.491,0,1.3852,1.3934,1.4081,1.4177,1.4214,1.4285,1.4381,1.4456,1.4542,1.4572,1.464,1.4667,1.4766,1.4734,1.4871,1.482,1.487,1.4906,1.4911,1.4922,1.4885,1.495,1.5071,1.5085,1.4934,1.4932,1.493,0,1.3898,1.4047,1.4154,1.4197,1.4312,1.4362,1.4412,1.4495,1.4553,1.4637,1.4675,1.477,1.4822,1.4896,1.4949,1.4921,1.5081,1.5054,1.5109,1.5108,1.514,1.5137,1.527,1.5175,1.5174,1.5174,1.5174,0,1.4006,1.4094,1.4176,1.4242,1.4343,1.4395,1.4494,1.4546,1.4619,1.4696,1.4727,1.4799,1.4865,1.4946,1.4989,1.5095,1.5119,1.5147,1.5157,1.5143,1.5139,1.5175,1.5169,1.5178,1.5177,1.5177,1.5176,0,1.4074,1.4133,1.4251,1.435,1.4377,1.4447,1.4532,1.4597,1.4647,1.4744,1.477,1.4847,1.4944,1.5004,1.5128,1.5157,1.5273,1.5282,1.5244,1.5248,1.5299,1.5293,1.5459,1.5483,1.5372,1.5373,1.5374,0,1.4137,1.4206,1.4313,1.4366,1.4416,1.4502,1.456,1.4616,1.4676,1.4779,1.4832,1.4931,1.5012,1.5166,1.5234,1.5329,1.5339,1.5391,1.5354,1.5338,1.5339,1.5333,1.534,1.5396,1.5397,1.5398,1.5399,0,1.4244,1.427,1.4352,1.4446,1.4514,1.4591,1.4667,1.4709,1.4778,1.4844,1.4943,1.5006,1.5132,1.523,1.5331,1.5384,1.5403,1.541,1.5428,1.5414,1.5388,1.5402,1.5259,1.5406,1.5405,1.5404,1.5404,1.5404,1.4311,1.4373,1.4458,1.4549,1.4612,1.4683,1.4749,1.4806,1.4889,1.4995,1.5023,1.5127,1.5212,1.5349,1.5405,1.5487,1.548,1.5506,1.5512,1.5517,1.5517,1.5376,1.5506,1.5506,1.5506,1.5506,1.5506,0,1.4418,1.4474,1.4557,1.4663,1.4735,1.4746,1.4831,1.4891,1.4981,1.5058,1.5138,1.5252,1.5347,1.5423,1.5521,1.5573,1.5584,1.5596,1.5592,1.5604,1.5519,1.5493,1.5586,1.5586,1.5585,1.5585,1.5585,1.5585,1.4482,1.4587,1.4623,1.4761,1.4817,1.4917,1.4965,1.5031,1.5093,1.5218,1.5297,1.5345,1.5422,1.5526,1.5614,1.5634,1.5669,1.5679,1.5701,1.5619,1.561,1.5602,1.5578,1.5687,1.5687,1.5779,1.578,1.5781]},{"header":{"parameterUnit":"m.s-1","parameterCategory":1,"la1":30.2991,"la2":30.254,"lo1":-89.0895,"lo2":-89.0444,"dy":0.0017,"dx":0.0017,"nx":28,"ny":28,"refTime":"2023-09-13T09:00:00:Z","depth":0,"parameterNumber":3,"parameterNumberName":"V-component_of_WINDS"},"data":[0,0,0,0,0,0,0,0,0,0,0,0,0,0,0,0,0,0,0,0,0,0,0,0,0,0,0,0,0,0,0,0,0,0,0,0,0,0,0,0,0,0,0,0,0,0,0,0,0,0,0,0,0,0,0,0,0,0,2.5493,2.5493,0,2.551,2.551,2.551,2.5438,2.5436,2.5434,2.5432,2.5451,2.5453,2.5456,0,0,0,0,0,0,0,0,0,0,0,0,0,2.5397,2.5399,2.5493,2.5493,2.5493,2.551,2.551,2.551,2.5439,2.5436,2.5434,2.5431,2.545,2.5453,2.5456,0,0,0,0,0,0,0,0,0,0,0,0,0,2.5429,2.54,2.5493,2.5459,2.5457,2.551,2.551,2.5511,2.5439,2.5436,2.5433,2.543,2.5449,2.5453,2.5456,2.5543,0,0,2.5468,2.5469,0,0,0,0,0,0,0,0,2.5427,2.5433,2.5464,2.5462,2.5459,2.5469,2.5483,2.5521,2.544,2.5446,2.5432,2.5428,2.546,2.5462,2.5472,2.5544,2.5545,2.5468,2.547,2.5472,2.5473,0,0,0,0,0,0,0,2.5425,2.5432,2.55,2.5465,2.5461,2.5443,2.5444,2.549,2.547,2.5445,2.544,2.5443,2.5457,2.5469,2.5472,2.5545,2.5468,2.5471,2.5474,2.5475,2.5684,2.5688,0,0,0,0,0,0,2.5427,2.543,2.5499,2.55,2.5435,2.5448,2.5449,2.5469,2.547,2.5467,2.5446,2.5439,2.5464,2.5468,2.5473,2.5571,2.5472,2.5475,2.5478,2.5681,2.5685,2.5689,0,0,0,0,0,0,2.5426,2.5434,2.5498,2.5464,2.547,2.5453,2.5476,2.5471,2.5482,2.547,2.5466,2.5461,2.5462,2.5467,2.5525,2.5571,2.5477,2.548,2.5677,2.5682,2.5687,2.5771,0,0,0,0,0,0,2.5423,2.5434,2.5467,2.5465,2.5473,2.5551,2.5479,2.5473,2.5489,2.5481,2.5483,2.5481,2.546,2.552,2.5529,2.5574,2.5483,2.5673,2.568,2.5685,2.5764,2.5778,2.5791,0,0,0,0,0,2.542,2.5491,2.5469,2.5478,2.5514,2.5554,2.5558,2.5532,2.5493,2.5525,2.5517,2.5481,2.5565,2.5526,2.5536,2.5583,2.567,2.5678,2.5685,2.5758,2.5776,2.579,0,0,0,0,0,0,2.5501,2.5491,2.5466,2.5539,2.5548,2.5542,2.5582,2.5552,2.5573,2.5565,2.5532,2.5533,2.5596,2.5595,2.5553,2.5665,2.561,2.562,2.5663,2.5679,2.5692,2.569,2.5486,0,0,0,0,0,2.5527,2.5561,2.555,2.5615,2.5621,2.5601,2.5618,2.5596,2.5604,2.5608,2.5604,2.5613,2.5641,2.5661,2.5686,2.5764,2.5762,2.5801,2.5814,2.5825,2.5834,2.5872,2.5888,2.5713,2.5713,2.5713,0,0,2.5582,2.558,2.5604,2.5631,2.5635,2.567,2.5605,2.5645,2.567,2.5614,2.5667,2.5665,2.5673,2.574,2.577,2.5742,2.5881,2.5835,2.5844,2.5846,2.5881,2.5898,2.5912,2.5718,2.5718,2.5717,0,0,2.5698,2.5702,2.5755,2.576,2.5766,2.5752,2.5765,2.5763,2.5759,2.5811,2.5769,2.5799,2.5849,2.5855,2.5865,2.5981,2.5947,2.599,2.6059,2.6097,2.611,2.6122,2.6161,2.6176,2.5999,2.5999,2.5999,0,2.5766,2.5816,2.5786,2.5828,2.584,2.579,2.5842,2.5849,2.5864,2.5874,2.5842,2.5901,2.5904,2.597,2.5998,2.6009,2.6021,2.5989,2.6111,2.6122,2.6133,2.617,2.6185,2.6004,2.6004,2.6003,2.6003,0,2.5897,2.5932,2.5974,2.5988,2.6005,2.6052,2.6029,2.605,2.6026,2.6015,2.6068,2.6069,2.6092,2.6106,2.6085,2.6169,2.6151,2.6116,2.606,2.6155,2.6189,2.6203,2.6011,2.6009,2.6008,2.6007,0,0,2.6066,2.606,2.6076,2.608,2.6083,2.6109,2.6153,2.6175,2.6192,2.6204,2.6239,2.6281,2.6247,2.6258,2.6237,2.627,2.6359,2.623,2.623,2.6252,2.6448,2.6474,2.6491,2.6337,2.634,2.6342,2.6447,0,2.6178,2.6252,2.6225,2.6301,2.6331,2.6283,2.6321,2.6326,2.6317,2.6341,2.6331,2.636,2.6315,2.632,2.6351,2.6342,2.6397,2.6334,2.6368,2.6369,2.6366,2.6509,2.6537,2.6636,2.646,2.6463,2.6464,0,2.6319,2.6334,2.6413,2.6406,2.6418,2.6453,2.6468,2.6493,2.6497,2.6488,2.6499,2.647,2.6511,2.6456,2.6512,2.6469,2.6482,2.6479,2.6482,2.6483,2.6422,2.6512,2.6667,2.6682,2.6485,2.6484,2.6482,0,2.6431,2.6472,2.6522,2.6528,2.6523,2.6548,2.6547,2.6548,2.6562,2.6576,2.6584,2.6603,2.6614,2.6629,2.6605,2.6568,2.6664,2.6607,2.6656,2.6657,2.6678,2.6677,2.6836,2.6689,2.6689,2.6688,2.6688,0,2.6559,2.6608,2.6572,2.6604,2.6656,2.6624,2.6678,2.6672,2.6672,2.6701,2.6661,2.6689,2.6657,2.6681,2.6663,2.6711,2.6717,2.6709,2.6704,2.6712,2.6713,2.6719,2.6711,2.6692,2.6691,2.6691,2.669,0,2.6693,2.6671,2.6723,2.6713,2.6711,2.6751,2.6742,2.677,2.6757,2.6793,2.68,2.678,2.6806,2.6784,2.6811,2.6798,2.6861,2.6846,2.6859,2.6854,2.6903,2.6898,2.7071,2.7091,2.6933,2.6934,2.6936,0,2.6775,2.6811,2.6804,2.6819,2.682,2.6847,2.6859,2.6829,2.6844,2.6849,2.6877,2.6899,2.6916,2.696,2.6948,2.6967,2.6952,2.701,2.6954,2.6961,2.695,2.6947,2.695,2.7022,2.7024,2.7025,2.7026,0,2.6921,2.6908,2.6927,2.6943,2.6958,2.697,2.6978,2.6993,2.6961,2.698,2.7006,2.7018,2.7044,2.7066,2.7081,2.708,2.7048,2.7044,2.7056,2.7064,2.7069,2.7065,2.6888,2.704,2.7039,2.7038,2.7037,2.7036,2.703,2.7058,2.7057,2.7079,2.7082,2.7089,2.7114,2.7103,2.7123,2.7141,2.7122,2.7152,2.7153,2.7169,2.7172,2.7195,2.7171,2.7189,2.7193,2.7197,2.7203,2.7067,2.7198,2.7198,2.7197,2.7197,2.7197,0,2.7172,2.7168,2.7189,2.72,2.7217,2.7184,2.7191,2.7207,2.7234,2.7238,2.7254,2.7282,2.7303,2.7291,2.7309,2.733,2.7316,2.7336,2.7333,2.7333,2.7225,2.7212,2.7347,2.7347,2.7347,2.7347,2.7347,2.7347,2.7248,2.7294,2.728,2.7326,2.7322,2.735,2.7356,2.7363,2.7364,2.7397,2.7414,2.7406,2.7403,2.7419,2.7437,2.7433,2.7441,2.7466,2.7456,2.7356,2.7341,2.7327,2.7314,2.7468,2.7468,2.7562,2.7563,2.7563]}]]